QPF
0.00 0.00 0.01 0.01 0.02 0.02 0.02 0.02 0.02 0.02 0.02 0.02 0.02 0.01 0.01 0.01 0.01 0.01 0.00 0.01 0.01 0.01 0.02 0.02 0.02 0.02 0.01 0.01 0.01 0.01 0.01 0.01 0.01 0.01 0.00 0.00 0.00 0.00 0.00 0.00 0.00 0.00 0.00
0.00 0.00 0.01 0.02 0.03 0.02 0.03 0.02 0.02 0.02 0.02 0.03 0.02 0.01 0.01 0.01 0.01 0.01 0.00 0.00 0.01 0.01 0.01 0.02 0.02 0.02 0.01 0.00 0.00 0.01 0.01 0.01 0.01 0.00 0.00 0.00 0.00 0.00 0.00 0.00 0.00 0.00 0.00
0.00 0.00 0.01 0.03 0.03 0.03 0.03 0.03 0.02 0.01 0.01 0.02 0.02 0.02 0.01 0.01 0.01 0.01 0.01 0.01 0.01 0.01 0.01 0.02 0.02 0.01 0.00 0.00 0.00 0.00 0.00 0.00 0.00 0.00 0.00 0.01 0.01 0.00 0.00 0.00 0.00 0.00 0.00
0.00 0.01 0.01 0.03 0.03 0.03 0.03 0.03 0.02 0.02 0.01 0.01 0.01 0.02 0.02 0.01 0.01 0.01 0.01 0.01 0.01 0.01 0.01 0.01 0.01 0.00 0.00 0.00 0.00 0.00 0.00 0.00 0.00 0.00 0.00 0.01 0.01 0.01 0.01 0.01 0.01 0.01 0.01
0.01 0.01 0.02 0.02 0.03 0.03 0.03 0.03 0.02 0.02 0.02 0.01 0.02 0.02 0.02 0.01 0.01 0.01 0.01 0.01 0.01 0.01 0.01 0.01 0.00 0.00 0.00 0.00 0.00 0.00 0.00 0.01 0.00 0.00 0.01 0.02 0.02 0.01 0.01 0.01 0.01 0.01 0.01
0.02 0.01 0.01 0.01 0.02 0.02 0.02 0.03 0.02 0.02 0.02 0.02 0.01 0.01 0.01 0.01 0.01 0.02 0.02 0.01 0.01 0.01 0.01 0.01 0.00 0.00 0.00 0.00 0.00 0.00 0.00 0.00 0.00 0.00 0.01 0.01 0.02 0.01 0.01 0.01 0.00 0.01 0.01
0.03 0.02 0.01 0.02 0.03 0.03 0.02 0.03 0.03 0.02 0.02 0.01 0.01 0.01 0.01 0.01 0.01 0.01 0.02 0.02 0.01 0.01 0.01 0.00 0.00 0.00 0.00 0.00 0.00 0.00 0.00 0.00 0.00 0.00 0.01 0.01 0.01 0.01 0.01 0.01 0.01 0.00 0.01
0.04 0.03 0.02 0.02 0.04 0.04 0.03 0.02 0.03 0.03 0.03 0.01 0.01 0.01 0.01 0.01 0.01 0.01 0.01 0.02 0.02 0.01 0.00 0.00 0.00 0.00 0.00 0.00 0.00 0.00 0.00 0.00 0.00 0.00 0.01 0.01 0.01 0.02 0.01 0.01 0.01 0.01 0.02
0.06 0.05 0.04 0.03 0.04 0.05 0.04 0.02 0.03 0.03 0.04 0.03 0.02 0.01 0.01 0.01 0.00 0.00 0.01 0.01 0.02 0.02 0.01 0.00 0.01 0.00 0.00 0.00 0.00 0.00 0.00 0.00 0.00 0.00 0.00 0.01 0.01 0.01 0.01 0.01 0.02 0.02 0.02
0.05 0.06 0.06 0.05 0.05 0.06 0.05 0.04 0.04 0.05 0.05 0.04 0.02 0.01 0.01 0.01 0.00 0.00 0.01 0.01 0.02 0.02 0.01 0.01 0.01 0.01 0.00 0.00 0.00 0.00 0.00 0.00 0.00 0.00 0.00 0.01 0.01 0.01 0.01 0.01 0.01 0.01 0.02
0.06 0.06 0.07 0.07 0.07 0.08 0.07 0.04 0.05 0.06 0.06 0.05 0.03 0.01 0.00 0.01 0.01 0.00 0.00 0.01 0.01 0.02 0.02 0.01 0.01 0.00 0.00 0.00 0.00 0.00 0.00 0.00 0.00 0.00 0.00 0.01 0.01 0.01 0.01 0.01 0.01 0.01 0.01
0.05 0.06 0.06 0.06 0.06 0.08 0.09 0.07 0.07 0.08 0.08 0.07 0.05 0.03 0.02 0.03 0.03 0.01 0.01 0.00 0.01 0.01 0.01 0.01 0.01 0.01 0.01 0.01 0.01 0.00 0.00 0.00 0.00 0.00 0.00 0.00 0.01 0.02 0.02 0.01 0.01 0.01 0.01
0.04 0.05 0.07 0.07 0.07 0.07 0.08 0.07 0.06 0.07 0.08 0.08 0.06 0.05 0.05 0.05 0.05 0.05 0.03 0.02 0.01 0.01 0.02 0.02 0.03 0.02 0.02 0.01 0.01 0.01 0.01 0.01 0.01 0.00 0.00 0.00 0.01 0.02 0.02 0.02 0.02 0.02 0.02
0.06 0.06 0.07 0.08 0.09 0.08 0.09 0.11 0.08 0.08 0.09 0.10 0.08 0.05 0.05 0.05 0.04 0.05 0.05 0.04 0.04 0.04 0.04 0.04 0.04 0.04 0.02 0.01 0.00 0.01 0.01 0.00 0.00 0.00 0.00 0.00 0.00 0.01 0.01 0.02 0.01 0.02 0.01
0.07 0.06 0.07 0.08 0.08 0.07 0.08 0.13 0.11 0.08 0.09 0.09 0.11 0.09 0.07 0.06 0.05 0.04 0.05 0.04 0.04 0.03 0.03 0.03 0.02 0.03 0.03 0.02 0.00 0.00 0.00 0.00 0.00 0.00 0.00 0.00 0.00 0.00 0.01 0.01 0.01 0.01 0.01
0.07 0.06 0.07 0.09 0.07 0.05 0.05 0.09 0.13 0.08 0.07 0.08 0.09 0.10 0.08 0.06 0.04 0.04 0.03 0.03 0.03 0.02 0.01 0.01 0.01 0.02 0.03 0.03 0.02 0.00 0.00 0.00 0.00 0.00 0.00 0.00 0.00 0.00 0.01 0.01 0.01 0.01 0.02
0.06 0.06 0.06 0.08 0.08 0.06 0.05 0.07 0.12 0.10 0.08 0.09 0.09 0.09 0.08 0.06 0.02 0.01 0.01 0.01 0.02 0.01 0.01 0.01 0.00 0.01 0.03 0.03 0.03 0.03 0.01 0.00 0.00 0.00 0.00 0.00 0.00 0.01 0.01 0.01 0.01 0.01 0.02
0.05 0.05 0.06 0.06 0.08 0.07 0.06 0.07 0.08 0.09 0.08 0.10 0.10 0.08 0.07 0.06 0.04 0.02 0.01 0.01 0.01 0.01 0.01 0.01 0.01 0.01 0.02 0.03 0.03 0.03 0.03 0.01 0.00 0.00 0.00 0.01 0.01 0.01 0.01 0.00 0.01 0.01 0.02
0.06 0.05 0.05 0.05 0.05 0.06 0.08 0.07 0.08 0.08 0.08 0.08 0.09 0.07 0.05 0.05 0.05 0.04 0.02 0.02 0.01 0.01 0.01 0.01 0.01 0.01 0.01 0.01 0.02 0.02 0.02 0.01 0.00 0.00 0.00 0.00 0.01 0.00 0.00 0.00 0.00 0.01 0.01
0.06 0.04 0.06 0.05 0.04 0.05 0.08 0.08 0.10 0.10 0.08 0.09 0.09 0.08 0.06 0.05 0.04 0.04 0.04 0.03 0.02 0.01 0.01 0.01 0.01 0.01 0.01 0.02 0.01 0.01 0.01 0.01 0.01 0.00 0.00 0.00 0.00 0.00 0.00 0.00 0.00 0.00 0.01
0.07 0.04 0.03 0.03 0.03 0.03 0.05 0.06 0.06 0.09 0.09 0.08 0.10 0.10 0.08 0.06 0.04 0.02 0.03 0.03 0.02 0.02 0.01 0.01 0.01 0.01 0.01 0.02 0.02 0.01 0.01 0.01 0.00 0.00 0.00 0.00 0.00 0.00 0.00 0.00 0.00 0.01 0.01
0.05 0.05 0.03 0.02 0.02 0.02 0.03 0.03 0.04 0.05 0.07 0.08 0.09 0.09 0.11 0.08 0.05 0.03 0.02 0.02 0.01 0.01 0.01 0.01 0.01 0.01 0.01 0.01 0.02 0.01 0.01 0.01 0.00 0.00 0.00 0.00 0.00 0.00 0.00 0.01 0.01 0.01 0.00
0.02 0.04 0.03 0.02 0.01 0.02 0.02 0.02 0.03 0.04 0.06 0.07 0.08 0.08 0.09 0.10 0.07 0.04 0.03 0.01 0.01 0.01 0.01 0.01 0.01 0.01 0.01 0.01 0.01 0.01 0.01 0.00 0.00 0.00 0.00 0.00 0.00 0.00 0.01 0.01 0.00 0.00 0.00
0.01 0.01 0.02 0.01 0.01 0.01 0.02 0.02 0.03 0.04 0.05 0.06 0.09 0.09 0.10 0.10 0.08 0.07 0.05 0.03 0.02 0.01 0.01 0.01 0.01 0.01 0.02 0.01 0.01 0.01 0.01 0.01 0.01 0.00 0.00 0.00 0.00 0.00 0.00 0.00 0.00 0.00 0.00
0.01 0.01 0.02 0.01 0.01 0.02 0.02 0.01 0.02 0.03 0.04 0.04 0.06 0.08 0.10 0.10 0.06 0.05 0.05 0.03 0.02 0.01 0.01 0.00 0.01 0.01 0.01 0.01 0.01 0.01 0.01 0.01 0.01 0.01 0.00 0.00 0.00 0.00 0.00 0.00 0.00 0.00 0.00
0.01 0.01 0.02 0.03 0.03 0.03 0.02 0.02 0.01 0.02 0.03 0.03 0.03 0.05 0.06 0.07 0.05 0.03 0.03 0.03 0.02 0.01 0.01 0.01 0.00 0.01 0.01 0.02 0.02 0.02 0.01 0.01 0.01 0.01 0.01 0.01 0.00 0.00 0.00 0.00 0.00 0.00 0.00
MSLP
1011.83 1012.00 1012.22 1012.53 1012.92 1013.37 1013.83 1014.25 1014.58 1014.81 1014.95 1015.03 1015.10 1015.20 1015.34 1015.53 1015.74 1015.95 1016.11 1016.21 1016.25 1016.24 1016.20 1016.17 1016.17 1016.21 1016.29 1016.38 1016.45 1016.49 1016.48 1016.43 1016.36 1016.28 1016.23 1016.20 1016.21 1016.24 1016.26 1016.27 1016.23 1016.15 1016.05
1011.65 1011.80 1012.03 1012.39 1012.86 1013.38 1013.90 1014.35 1014.69 1014.91 1015.02 1015.08 1015.15 1015.25 1015.43 1015.66 1015.93 1016.18 1016.39 1016.51 1016.55 1016.54 1016.48 1016.44 1016.42 1016.44 1016.49 1016.56 1016.60 1016.60 1016.56 1016.48 1016.39 1016.31 1016.26 1016.26 1016.30 1016.36 1016.42 1016.45 1016.43 1016.36 1016.27
1011.57 1011.68 1011.92 1012.31 1012.84 1013.43 1014.01 1014.51 1014.87 1015.10 1015.20 1015.25 1015.30 1015.40 1015.59 1015.84 1016.13 1016.41 1016.62 1016.76 1016.80 1016.77 1016.71 1016.64 1016.61 1016.61 1016.63 1016.67 1016.68 1016.65 1016.58 1016.48 1016.37 1016.28 1016.25 1016.27 1016.33 1016.42 1016.51 1016.56 1016.56 1016.51 1016.42
1011.62 1011.69 1011.92 1012.34 1012.92 1013.57 1014.21 1014.76 1015.15 1015.39 1015.49 1015.52 1015.56 1015.65 1015.81 1016.06 1016.34 1016.61 1016.82 1016.95 1016.98 1016.94 1016.87 1016.79 1016.74 1016.73 1016.74 1016.75 1016.73 1016.68 1016.58 1016.46 1016.34 1016.26 1016.22 1016.25 1016.33 1016.44 1016.53 1016.60 1016.61 1016.56 1016.49
1011.80 1011.84 1012.07 1012.51 1013.13 1013.82 1014.51 1015.09 1015.51 1015.75 1015.85 1015.87 1015.89 1015.95 1016.09 1016.31 1016.56 1016.81 1017.00 1017.11 1017.13 1017.08 1017.00 1016.92 1016.87 1016.84 1016.84 1016.83 1016.80 1016.73 1016.62 1016.49 1016.36 1016.27 1016.23 1016.25 1016.32 1016.42 1016.50 1016.55 1016.56 1016.51 1016.44
1012.12 1012.14 1012.37 1012.82 1013.45 1014.17 1014.88 1015.48 1015.91 1016.15 1016.25 1016.26 1016.25 1016.29 1016.41 1016.59 1016.81 1017.02 1017.18 1017.27 1017.27 1017.22 1017.14 1017.07 1017.01 1016.99 1016.98 1016.97 1016.93 1016.85 1016.74 1016.60 1016.46 1016.36 1016.30 1016.30 1016.34 1016.39 1016.44 1016.46 1016.44 1016.38 1016.30
1012.52 1012.54 1012.77 1013.23 1013.86 1014.58 1015.28 1015.87 1016.29 1016.53 1016.62 1016.63 1016.61 1016.64 1016.73 1016.89 1017.08 1017.26 1017.39 1017.46 1017.46 1017.40 1017.32 1017.25 1017.20 1017.19 1017.18 1017.17 1017.13 1017.05 1016.94 1016.80 1016.66 1016.55 1016.46 1016.42 1016.41 1016.41 1016.40 1016.37 1016.31 1016.23 1016.15
1012.96 1013.00 1013.24 1013.69 1014.31 1015.00 1015.66 1016.22 1016.61 1016.84 1016.93 1016.94 1016.93 1016.96 1017.05 1017.19 1017.37 1017.53 1017.64 1017.69 1017.68 1017.62 1017.54 1017.48 1017.43 1017.42 1017.42 1017.42 1017.39 1017.33 1017.23 1017.10 1016.96 1016.84 1016.73 1016.65 1016.58 1016.51 1016.43 1016.34 1016.23 1016.12 1016.03
1013.39 1013.47 1013.72 1014.15 1014.73 1015.37 1015.97 1016.48 1016.83 1017.04 1017.13 1017.16 1017.18 1017.24 1017.35 1017.50 1017.67 1017.82 1017.92 1017.95 1017.93 1017.86 1017.78 1017.72 1017.68 1017.67 1017.68 1017.69 1017.68 1017.64 1017.56 1017.46 1017.34 1017.22 1017.10 1016.99 1016.87 1016.74 1016.60 1016.45 1016.29 1016.16 1016.05
1013.76 1013.88 1014.15 1014.57 1015.10 1015.66 1016.20 1016.63 1016.95 1017.14 1017.24 1017.30 1017.36 1017.46 1017.61 1017.78 1017.96 1018.11 1018.20 1018.22 1018.18 1018.10 1018.01 1017.94 1017.90 1017.90 1017.92 1017.95 1017.96 1017.96 1017.92 1017.86 1017.78 1017.68 1017.56 1017.43 1017.29 1017.12 1016.92 1016.72 1016.53 1016.37 1016.26
1014.04 1014.21 1014.51 1014.91 1015.39 1015.88 1016.34 1016.71 1016.97 1017.15 1017.27 1017.37 1017.48 1017.64 1017.83 1018.03 1018.23 1018.37 1018.45 1018.45 1018.39 1018.30 1018.20 1018.12 1018.08 1018.09 1018.12 1018.17 1018.23 1018.27 1018.28 1018.28 1018.24 1018.18 1018.09 1017.97 1017.82 1017.63 1017.41 1017.18 1016.96 1016.78 1016.66
1014.21 1014.45 1014.78 1015.17 1015.61 1016.04 1016.42 1016.73 1016.96 1017.13 1017.27 1017.41 1017.57 1017.78 1018.01 1018.24 1018.44 1018.59 1018.65 1018.63 1018.55 1018.45 1018.34 1018.26 1018.22 1018.24 1018.30 1018.38 1018.48 1018.57 1018.65 1018.71 1018.73 1018.72 1018.68 1018.58 1018.44 1018.25 1018.03 1017.79 1017.56 1017.37 1017.24
1014.27 1014.59 1014.95 1015.36 1015.77 1016.15 1016.48 1016.75 1016.95 1017.12 1017.28 1017.46 1017.67 1017.91 1018.17 1018.41 1018.61 1018.74 1018.78 1018.75 1018.66 1018.55 1018.44 1018.37 1018.35 1018.39 1018.48 1018.60 1018.75 1018.90 1019.03 1019.15 1019.24 1019.28 1019.28 1019.23 1019.11 1018.95 1018.74 1018.51 1018.28 1018.09 1017.95
1014.23 1014.63 1015.06 1015.48 1015.89 1016.25 1016.55 1016.80 1017.00 1017.18 1017.36 1017.56 1017.80 1018.06 1018.32 1018.56 1018.74 1018.85 1018.88 1018.83 1018.73 1018.63 1018.54 1018.49 1018.50 1018.57 1018.70 1018.87 1019.06 1019.26 1019.45 1019.62 1019.75 1019.85 1019.89 1019.87 1019.79 1019.65 1019.47 1019.26 1019.05 1018.87 1018.73
1014.12 1014.60 1015.09 1015.55 1015.98 1016.35 1016.65 1016.91 1017.12 1017.31 1017.51 1017.74 1017.98 1018.24 1018.49 1018.70 1018.86 1018.94 1018.95 1018.90 1018.81 1018.73 1018.67 1018.66 1018.72 1018.83 1019.00 1019.21 1019.44 1019.68 1019.90 1020.10 1020.27 1020.39 1020.46 1020.47 1020.42 1020.32 1020.17 1019.99 1019.81 1019.64 1019.51
1013.96 1014.52 1015.07 1015.58 1016.04 1016.45 1016.78 1017.07 1017.31 1017.54 1017.76 1017.99 1018.23 1018.46 1018.68 1018.85 1018.97 1019.03 1019.03 1018.99 1018.93 1018.89 1018.88 1018.92 1019.02 1019.18 1019.39 1019.63 1019.88 1020.13 1020.37 1020.58 1020.75 1020.88 1020.97 1021.00 1020.97 1020.90 1020.78 1020.65 1020.50 1020.36 1020.23
1013.81 1014.42 1015.01 1015.57 1016.08 1016.53 1016.92 1017.26 1017.55 1017.82 1018.07 1018.30 1018.52 1018.73 1018.90 1019.04 1019.12 1019.16 1019.16 1019.14 1019.12 1019.12 1019.16 1019.26 1019.41 1019.60 1019.83 1020.09 1020.34 1020.59 1020.81 1021.01 1021.17 1021.29 1021.37 1021.41 1021.40 1021.36 1021.29 1021.19 1021.09 1020.98 1020.88
1013.68 1014.32 1014.94 1015.53 1016.09 1016.59 1017.05 1017.45 1017.81 1018.12 1018.40 1018.64 1018.85 1019.02 1019.15 1019.24 1019.30 1019.32 1019.33 1019.34 1019.36 1019.41 1019.51 1019.65 1019.83 1020.05 1020.28 1020.53 1020.77 1020.99 1021.19 1021.36 1021.50 1021.60 1021.67 1021.71 1021.71 1021.70 1021.66 1021.62 1021.56 1021.51 1021.44
1013.62 1014.25 1014.87 1015.47 1016.06 1016.61 1017.13 1017.61 1018.03 1018.40 1018.72 1018.97 1019.17 1019.31 1019.41 1019.47 1019.50 1019.52 1019.55 1019.58 1019.65 1019.74 1019.88 1020.05 1020.25 1020.46 1020.68 1020.90 1021.11 1021.30 1021.47 1021.60 1021.71 1021.80 1021.85 1021.89 1021.91 1021.92 1021.92 1021.92 1021.92 1021.92 1021.90
1013.62 1014.21 1014.80 1015.40 1015.99 1016.59 1017.16 1017.70 1018.20 1018.63 1018.98 1019.25 1019.45 1019.57 1019.65 1019.69 1019.72 1019.74 1019.78 1019.85 1019.95 1020.08 1020.24 1020.41 1020.61 1020.80 1021.00 1021.18 1021.35 1021.50 1021.63 1021.74 1021.83 1021.90 1021.95 1021.98 1022.01 1022.04 1022.08 1022.12 1022.17 1022.22 1022.25
1013.66 1014.20 1014.75 1015.32 1015.91 1016.52 1017.14 1017.74 1018.29 1018.77 1019.16 1019.46 1019.66 1019.79 1019.85 1019.89 1019.92 1019.95 1020.02 1020.11 1020.23 1020.38 1020.55 1020.72 1020.89 1021.06 1021.21 1021.35 1021.49 1021.61 1021.71 1021.80 1021.88 1021.94 1021.99 1022.03 1022.06 1022.10 1022.16 1022.23 1022.32 1022.40 1022.47
1013.72 1014.21 1014.71 1015.23 1015.81 1016.43 1017.07 1017.70 1018.30 1018.83 1019.26 1019.58 1019.80 1019.93 1020.00 1020.04 1020.08 1020.14 1020.22 1020.34 1020.49 1020.65 1020.81 1020.96 1021.10 1021.23 1021.35 1021.45 1021.56 1021.66 1021.75 1021.84 1021.92 1021.98 1022.03 1022.06 1022.09 1022.13 1022.18 1022.26 1022.36 1022.47 1022.57
1013.74 1014.19 1014.65 1015.15 1015.70 1016.31 1016.96 1017.62 1018.25 1018.80 1019.26 1019.61 1019.84 1019.99 1020.08 1020.14 1020.20 1020.28 1020.39 1020.53 1020.69 1020.86 1021.02 1021.15 1021.27 1021.37 1021.45 1021.53 1021.62 1021.72 1021.82 1021.91 1022.00 1022.06 1022.11 1022.13 1022.14 1022.15 1022.17 1022.23 1022.31 1022.41 1022.52
1013.67 1014.12 1014.56 1015.04 1015.57 1016.17 1016.82 1017.49 1018.13 1018.71 1019.18 1019.55 1019.80 1019.97 1020.08 1020.17 1020.25 1020.36 1020.51 1020.68 1020.86 1021.03 1021.19 1021.32 1021.42 1021.50 1021.57 1021.64 1021.73 1021.83 1021.94 1022.05 1022.15 1022.22 1022.25 1022.24 1022.21 1022.17 1022.14 1022.14 1022.18 1022.25 1022.34
1013.47 1013.96 1014.42 1014.89 1015.42 1016.01 1016.66 1017.32 1017.96 1018.54 1019.03 1019.40 1019.68 1019.87 1020.00 1020.12 1020.24 1020.39 1020.56 1020.76 1020.97 1021.16 1021.33 1021.46 1021.56 1021.64 1021.71 1021.79 1021.89 1022.01 1022.14 1022.26 1022.36 1022.43 1022.44 1022.40 1022.31 1022.21 1022.10 1022.02 1021.98 1022.00 1022.05
1013.14 1013.69 1014.18 1014.68 1015.22 1015.81 1016.45 1017.10 1017.74 1018.31 1018.80 1019.19 1019.48 1019.69 1019.85 1020.00 1020.16 1020.34 1020.55 1020.79 1021.02 1021.24 1021.43 1021.58 1021.70 1021.79 1021.88 1021.97 1022.09 1022.22 1022.36 1022.50 1022.60 1022.65 1022.64 1022.56 1022.42 1022.23 1022.05 1021.88 1021.75 1021.69 1021.70
Thickness
5746 5745 5743 5743 5742 5741 5740 5739 5738 5737 5736 5736 5735 5734 5733 5733 5733 5732 5732 5731 5731 5731 5730 5730 5729 5729 5728 5728 5727 5727 5726 5726 5725 5725 5724 5724 5723 5723 5723 5722 5722 5721 5721
5746 5742 5740 5739 5739 5738 5737 5736 5735 5734 5733 5733 5732 5731 5731 5730 5730 5730 5729 5729 5728 5728 5728 5727 5727 5726 5725 5725 5724 5724 5723 5723 5723 5722 5722 5721 5721 5720 5719 5719 5718 5717 5717
5742 5738 5736 5735 5735 5734 5733 5732 5732 5731 5730 5729 5729 5728 5728 5727 5727 5727 5726 5725 5725 5725 5724 5724 5723 5723 5722 5722 5721 5721 5720 5720 5720 5720 5720 5719 5718 5717 5716 5715 5714 5714 5713
5736 5734 5732 5731 5730 5730 5729 5728 5728 5727 5726 5726 5725 5725 5725 5724 5724 5723 5723 5722 5722 5721 5721 5720 5720 5719 5719 5718 5718 5717 5717 5717 5717 5717 5717 5718 5716 5714 5713 5712 5711 5710 5709
5730 5728 5726 5725 5725 5725 5725 5724 5724 5723 5723 5722 5721 5721 5721 5720 5720 5720 5719 5718 5718 5718 5717 5716 5716 5715 5715 5715 5714 5714 5714 5714 5714 5714 5715 5714 5713 5711 5710 5709 5707 5706 5706
5723 5721 5720 5720 5719 5719 5720 5720 5719 5719 5718 5718 5717 5717 5716 5716 5716 5716 5715 5714 5714 5714 5713 5713 5712 5712 5711 5711 5711 5710 5710 5710 5711 5711 5711 5711 5709 5707 5706 5705 5704 5703 5702
5716 5715 5713 5713 5714 5714 5714 5715 5715 5714 5714 5713 5713 5712 5712 5712 5711 5711 5711 5710 5710 5710 5709 5709 5708 5708 5707 5707 5707 5707 5706 5707 5707 5708 5707 5706 5705 5703 5702 5701 5700 5700 5699
5709 5708 5707 5707 5707 5708 5708 5709 5709 5709 5709 5709 5708 5708 5707 5707 5707 5706 5706 5706 5705 5705 5705 5704 5704 5704 5703 5703 5703 5703 5703 5703 5703 5704 5703 5702 5700 5699 5698 5697 5696 5696 5695
5700 5700 5700 5701 5701 5702 5702 5703 5703 5704 5704 5703 5703 5703 5702 5702 5702 5701 5701 5701 5700 5700 5700 5700 5699 5699 5699 5698 5698 5698 5699 5699 5699 5699 5698 5697 5696 5695 5694 5693 5692 5692 5691
5691 5693 5694 5695 5695 5696 5696 5697 5697 5698 5698 5698 5698 5698 5698 5697 5697 5696 5696 5695 5695 5695 5695 5695 5695 5694 5694 5694 5694 5694 5695 5695 5695 5694 5693 5692 5691 5690 5689 5688 5688 5687 5687
5681 5684 5687 5689 5690 5690 5691 5691 5692 5693 5693 5693 5693 5694 5693 5693 5692 5692 5691 5691 5691 5691 5691 5691 5690 5690 5690 5690 5690 5690 5690 5690 5690 5689 5687 5686 5686 5685 5684 5683 5683 5682 5682
5672 5676 5680 5682 5683 5685 5686 5686 5687 5688 5688 5688 5688 5689 5689 5688 5688 5687 5686 5686 5686 5686 5686 5686 5686 5686 5685 5685 5685 5685 5685 5685 5684 5683 5681 5681 5680 5679 5678 5678 5677 5676 5676
5666 5670 5673 5675 5676 5678 5680 5681 5681 5682 5683 5683 5683 5683 5683 5683 5683 5683 5682 5681 5681 5681 5681 5681 5681 5681 5681 5681 5680 5680 5680 5680 5678 5677 5674 5674 5674 5673 5672 5672 5671 5670 5670
5660 5662 5666 5668 5669 5671 5673 5674 5675 5676 5676 5677 5677 5678 5678 5678 5678 5678 5677 5676 5676 5676 5676 5676 5676 5676 5676 5676 5676 5675 5675 5674 5672 5670 5668 5667 5666 5666 5665 5665 5665 5664 5663
5653 5656 5659 5661 5662 5664 5666 5668 5669 5670 5670 5670 5671 5671 5672 5672 5672 5672 5672 5671 5670 5670 5670 5670 5671 5671 5671 5671 5670 5670 5669 5668 5666 5664 5662 5661 5659 5658 5658 5658 5658 5657 5656
5647 5650 5652 5655 5656 5658 5660 5661 5662 5664 5664 5664 5664 5665 5665 5666 5666 5666 5665 5665 5664 5664 5664 5665 5665 5665 5665 5664 5664 5663 5662 5661 5659 5658 5656 5653 5652 5651 5650 5650 5650 5649 5648
5642 5644 5646 5648 5650 5652 5653 5655 5655 5656 5657 5658 5658 5658 5658 5659 5659 5659 5659 5658 5658 5658 5658 5658 5658 5658 5658 5658 5657 5656 5655 5653 5652 5650 5648 5646 5645 5643 5642 5641 5640 5640 5639
5636 5638 5640 5642 5643 5645 5646 5647 5648 5649 5650 5650 5651 5651 5651 5652 5652 5652 5651 5651 5651 5651 5651 5651 5651 5650 5650 5649 5648 5648 5647 5646 5645 5643 5641 5639 5637 5635 5634 5632 5631 5630 5630
5631 5632 5634 5635 5636 5638 5639 5640 5641 5642 5643 5643 5643 5644 5644 5645 5645 5644 5644 5644 5644 5643 5643 5643 5643 5642 5641 5640 5641 5641 5640 5639 5637 5636 5634 5632 5630 5628 5625 5624 5622 5621 5619
5625 5626 5628 5628 5629 5631 5632 5633 5633 5634 5635 5635 5636 5637 5637 5637 5637 5637 5636 5636 5635 5635 5634 5634 5634 5634 5633 5633 5634 5633 5632 5631 5630 5628 5626 5624 5622 5620 5617 5615 5613 5611 5610
5618 5620 5621 5622 5623 5623 5624 5625 5625 5625 5626 5626 5627 5628 5629 5629 5629 5629 5628 5628 5627 5626 5625 5625 5625 5625 5624 5624 5623 5623 5623 5624 5622 5620 5618 5616 5613 5611 5609 5607 5604 5602 5600
5613 5614 5615 5616 5616 5617 5618 5619 5619 5618 5618 5619 5620 5620 5621 5621 5621 5621 5620 5620 5619 5618 5617 5616 5616 5615 5615 5615 5612 5611 5610 5611 5612 5612 5609 5607 5605 5602 5600 5597 5594 5592 5591
5607 5609 5612 5611 5611 5611 5612 5612 5612 5611 5611 5611 5612 5611 5613 5614 5613 5613 5612 5611 5611 5610 5609 5607 5606 5605 5604 5605 5604 5601 5598 5598 5598 5600 5600 5597 5595 5593 5590 5588 5585 5582 5580
5602 5604 5606 5605 5605 5605 5606 5606 5605 5604 5604 5604 5604 5604 5604 5605 5605 5604 5603 5603 5602 5601 5600 5599 5597 5596 5595 5593 5593 5592 5591 5589 5585 5586 5587 5587 5585 5583 5581 5579 5575 5573 5570
5599 5599 5599 5599 5599 5599 5600 5600 5599 5598 5598 5597 5597 5597 5596 5596 5596 5595 5594 5594 5592 5592 5591 5590 5588 5587 5586 5584 5583 5582 5581 5579 5578 5574 5573 5573 5572 5572 5571 5568 5565 5562 5560
5594 5593 5593 5593 5594 5593 5593 5593 5592 5592 5590 5589 5589 5588 5588 5587 5587 5586 5586 5585 5584 5583 5582 5581 5579 5578 5576 5575 5574 5572 5570 5568 5566 5563 5561 5561 5560 5560 5560 5558 5556 5553 5549